Location: Te Maire Creek
(41.1333°S, 175.9167°E)
Time: 00:30:54
(UTC+00:00)

Cosmos 44 Rocket - Pass Details

Date: 19 May 2024
Orbit: 643 x 741 km, 65.1° (Epoch: 18 June)

Event Time Altitude Azimuth Distance (km) Brightness Sun altitude
Exits shadow 17:19:16 39° 193° (SSW) 984 3.9 -22.9°
Drops below altitude 10° 17:22:44 10° 158° (SSE) 2,091 5.9 -22.2°
Sets 17:25:09 0° 152° (SSE) 3,021 6.9 -21.8°
